Hourly Weather Roundup
Issued by NWS Central Illinois

Home | Current Version | Previous Version | Text Only | Print | Product List | Glossary On
Versions: 1 2 3 4 5 6 7 8 9 10 11 12 13 14 15 16 17 18 19 20 21 22 23 24 25 26 27 28 29 30 31 32 33 34 35 36 37 38 39 40 41 42 43 44 45 46 47 48 49 50
000
NZUS43 KILX 301010
HWRILX

AREA WEATHER ROUNDUP
NATIONAL WEATHER SERVICE, LINCOLN IL
400 AM CST FRI JAN 30 2015


CITY           SKY/WX    TMP DP  RH WIND       PRES   REMARKS
BLOOMINGTON    CLEAR     26  19  74 NW12      30.43R WCI  16
CHAMPAIGN      CLOUDY    28  20  71 NW16      30.40R WCI  16
DECATUR        CLOUDY    30  18  60 N14G25    30.43R WCI  19
FLORA          CLOUDY    33  24  70 NW10G18   30.44R WCI  24
GALESBURG      CLEAR     23  18  81 NW9       30.47S WCI  13
JACKSONVILLE   CLOUDY    30  20  67 NW13      30.47F WCI  20
LACON          CLEAR     24  18  77 NW7       30.46R WCI  16
LAWRENCEVILLE  CLOUDY    34  24  67 NW14      30.41R WCI  25
LITCHFIELD     CLOUDY    29  21  70 NW13G20   30.46R WCI  19
$$


CITY           SKY/WX    TMP DP  RH WIND       PRES   REMARKS
LINCOLN        CLEAR     29  22  76 NW7       30.47R WCI  22
MACOMB         CLEAR     24  19  82 NW12      30.52R WCI  13
MATTOON        MOCLDY    29  22  75 NW18      30.40R WCI  16
MT CARMEL AP   CLOUDY    36  25  64 NW14G20   30.41R WCI  27
OLNEY-NOBLE AP CLOUDY    32  27  80 NW14      30.43R WCI  22
PARIS          CLOUDY    32  27  83 NW10G18   30.39R WCI  23
PEORIA         CLEAR     26  17  68 NW7       30.46R WCI  18
PONTIAC        CLEAR     27  22  80 NW12      30.43R WCI  17
RANTOUL        CLOUDY    31  22  69 NW13G22   30.40R WCI  21
ROBINSON       CLOUDY    33  25  73 NW16G22   30.41R WCI  22
SPRINGFIELD    CLEAR     27  19  72 NW10      30.47R WCI  17
TAYLORVILLE    CLOUDY    30  21  69 NW13      30.46R WCI  20
$$

...REGIONAL REPORTS...


CITY           SKY/WX    TMP DP  RH WIND       PRES   REMARKS
CHICAGO O`HARE CLEAR     23   9  55 N14       30.41R WCI  11
KANKAKEE       PTCLDY    27  20  74 N12       30.41R WCI  17
MOLINE         CLEAR     22  12  65 NW10      30.49R WCI  11
MOUNT VERNON   CLOUDY    34  21  60 N5        30.44S WCI  30
PITTSFIELD     MOCLDY    28  20  73 NW8       30.50R WCI  19
QUINCY         CLOUDY    26  17  68 N9        30.50R WCI  17
ROCKFORD       CLEAR     23  12  62 N12G21    30.46R WCI  12
$$


CITY           SKY/WX    TMP DP  RH WIND       PRES   REMARKS
BURLINGTON     CLEAR     24  17  74 NW8       30.50R WCI  15
CEDAR RAPIDS   CLEAR     18  14  84 NW8       30.50R WCI   8
DES MOINES     CLEAR     20  13  74 NE6       30.53F WCI  12
KIRKSVILLE     MOCLDY    23  20  88 N9        30.52R WCI  13
OTTUMWA        CLEAR     19  14  81 NW9       30.53R WCI   8
ST LOUIS       MOCLDY    31  20  63 NW9       30.48S WCI  23
$$


CITY           SKY/WX    TMP DP  RH WIND       PRES   REMARKS
TERRE HAUTE    CLOUDY    33  25  72 NW16G28   30.37R WCI  23
EVANSVILLE     CLOUDY    36  24  62 NW10G17   30.42R WCI  28
INDIANAPOLIS   FLURRIES  28  24  85 NW15      30.32R WCI  16
LAFAYETTE      CLOUDY    28  19  69 N14G26    30.37R WCI  17
MADISON        CLEAR     17   7  64 NW7       30.45R WCI   8
MILWAUKEE      PTCLDY    21   8  57 NW12G22   30.42R WCI   9
$$




USA.gov is the U.S. government's official web portal to all federal, state and local government web resources and services.